FW8690 Weather Reports


time (UTC)temp
C
wind
direction
speed
KPH
gust
KPH
rain 1hr
cm
rain 24hr
cm
rain mn
cm
humidity
%
barometer
mb
20260506145504 16 0 0.0 0.0 0.00 0.00 0.00 49 1013.4
20260506145003 16 0 0.0 0.0 0.00 0.00 0.00 51 1013.5
20260506144504 15 0 0.0 0.0 0.00 0.00 0.00 51 1013.5
20260506144213 15 0 0.0 0.0 0.00 0.00 0.00 53 1013.6
20260506143504 15 0 0.0 0.0 0.00 0.00 0.00 53 1013.6
20260506143213 15 0 0.0 0.0 0.00 0.00 0.00 54 1013.6
20260506142503 15 0 0.0 0.0 0.00 0.00 0.00 55 1013.5
20260506142004 15 308 0.0 1.6 0.00 0.00 0.00 57 1013.7
20260506141504 14 308 0.0 1.6 0.00 0.00 0.00 57 1013.9
20260506141213 14 0 0.0 0.0 0.00 0.00 0.00 59 1014.0
20260506140503 14 0 0.0 0.0 0.00 0.00 0.00 56 1014.0
20260506140004 14 0 0.0 0.0 0.00 0.00 0.00 58 1014.0
20260506135714 14 0 0.0 0.0 0.00 0.00 0.00 56 1014.1
20260506135213 14 0 0.0 0.0 0.00 0.00 0.00 57 1014.1
20260506134505 13 0 0.0 0.0 0.00 0.00 0.00 58 1014.1
20260506134003 13 0 0.0 0.0 0.00 0.00 0.00 56 1014.3
20260506133503 13 0 0.0 0.0 0.00 0.00 0.00 57 1014.3
20260506133213 13 0 0.0 0.0 0.00 0.00 0.00 56 1014.2
20260506132503 14 0 0.0 0.0 0.00 0.00 0.00 59 1014.3
20260506132003 13 0 0.0 0.0 0.00 0.00 0.00 60 1014.3
20260506131503 13 0 0.0 0.0 0.00 0.00 0.00 58 1014.3
20260506131004 13 0 0.0 0.0 0.00 0.00 0.00 58 1014.3
20260506130504 13 0 0.0 0.0 0.00 0.00 0.00 59 1014.3
20260506130004 13 0 0.0 0.0 0.00 0.00 0.00 58 1014.3
20260506125714 13 0 0.0 0.0 0.00 0.00 0.00 60 1014.2
20260506125004 13 0 0.0 0.0 0.00 0.00 0.00 60 1014.2
20260506124503 13 0 0.0 0.0 0.00 0.00 0.00 61 1014.2
20260506124213 13 0 0.0 0.0 0.00 0.00 0.00 62 1014.3
20260506123503 12 0 0.0 0.0 0.00 0.00 0.00 63 1014.2
20260506123213 12 0 0.0 0.0 0.00 0.00 0.00 62 1014.3
20260506122504 12 0 0.0 0.0 0.00 0.00 0.00 62 1014.3
20260506122004 12 0 0.0 0.0 0.00 0.00 0.00 63 1014.3
20260506121504 12 0 0.0 0.0 0.00 0.00 0.00 64 1014.4
20260506121004 12 0 0.0 0.0 0.00 0.00 0.00 65 1014.3
20260506120503 12 0 0.0 0.0 0.00 0.00 0.00 62 1014.4
20260506120214 12 0 0.0 0.0 0.00 0.00 0.00 63 1014.4
20260506115504 12 0 0.0 0.0 0.00 0.00 0.00 65 1014.4
20260506115003 12 0 0.0 0.0 0.00 0.00 0.00 66 1014.5
20260506114503 12 0 0.0 0.0 0.00 0.00 0.00 67 1014.4
20260506114004 12 0 0.0 0.0 0.00 0.00 0.00 68 1014.5
20260506113504 11 0 0.0 0.0 0.00 0.00 0.00 69 1014.5
20260506113005 11 0 0.0 0.0 0.00 0.00 0.00 69 1014.5
20260506112505 11 0 0.0 0.0 0.00 0.00 0.00 68 1014.5
20260506112005 11 0 0.0 0.0 0.00 0.00 0.00 68 1014.5
20260506111504 11 0 0.0 0.0 0.00 0.00 0.00 69 1014.6
20260506111004 11 0 0.0 0.0 0.00 0.00 0.00 70 1014.5
20260506110503 11 0 0.0 0.0 0.00 0.00 0.00 70 1014.6
20260506110003 11 0 0.0 0.0 0.00 0.00 0.00 70 1014.6
20260506105504 11 0 0.0 0.0 0.00 0.00 0.00 70 1014.5
20260506105004 11 0 0.0 0.0 0.00 0.00 0.00 70 1014.5
20260506104504 11 0 0.0 0.0 0.00 0.00 0.00 70 1014.6
20260506104214 11 0 0.0 0.0 0.00 0.00 0.00 70 1014.5
20260506103503 11 0 0.0 0.0 0.00 0.00 0.00 70 1014.4
20260506103003 11 0 0.0 0.0 0.00 0.00 0.00 71 1014.3
20260506102503 11 0 0.0 0.0 0.00 0.00 0.00 72 1014.4
20260506102003 11 0 0.0 0.0 0.00 0.00 0.00 72 1014.5
20260506101503 11 0 0.0 0.0 0.00 0.00 0.00 72 1014.5
20260506101004 11 0 0.0 0.0 0.00 0.00 0.00 72 1014.5
20260506100504 10 0 0.0 0.0 0.00 0.00 0.00 72 1014.4
20260506100004 10 0 0.0 0.0 0.00 0.00 0.00 72 1014.4
20260506095503 10 0 0.0 0.0 0.00 0.00 0.00 73 1014.4
20260506095005 10 0 0.0 0.0 0.00 0.00 0.00 74 1014.4
20260506094505 10 0 0.0 0.0 0.00 0.00 0.00 75 1014.5
20260506094005 10 0 0.0 0.0 0.00 0.00 0.00 75 1014.4
20260506093503 10 0 0.0 0.0 0.00 0.00 0.00 76 1014.4
20260506093003 10 0 0.0 0.0 0.00 0.00 0.00 78 1014.3
20260506092504 10 0 0.0 0.0 0.00 0.00 0.00 79 1014.2
20260506092214 10 0 0.0 0.0 0.00 0.00 0.00 79 1014.2
20260506091504 10 0 0.0 0.0 0.00 0.00 0.00 80 1014.2
20260506091004 10 0 0.0 0.0 0.00 0.00 0.00 79 1014.2
20260506090504 10 0 0.0 0.0 0.00 0.00 0.00 80 1014.1
20260506090005 10 0 0.0 0.0 0.00 0.00 0.00 80 1014.3
20260506085503 9 0 0.0 0.0 0.00 0.00 0.00 80 1014.3
20260506085003 9 0 0.0 0.0 0.00 0.00 0.00 80 1014.2
20260506084714 9 0 0.0 0.0 0.00 0.00 0.00 80 1014.2
20260506084004 9 0 0.0 0.0 0.00 0.00 0.00 80 1014.2
20260506083503 9 0 0.0 0.0 0.00 0.00 0.00 80 1014.2
20260506083004 9 0 0.0 0.0 0.00 0.00 0.00 80 1014.2
20260506082504 8 0 0.0 0.0 0.00 0.00 0.00 80 1014.3
20260506082003 8 0 0.0 0.0 0.00 0.00 0.00 81 1014.2
20260506081504 8 0 0.0 0.0 0.00 0.00 0.00 81 1014.2
20260506081003 8 0 0.0 0.0 0.00 0.00 0.00 81 1014.1
20260506080503 8 0 0.0 0.0 0.00 0.00 0.00 80 1014.1
20260506080213 8 0 0.0 0.0 0.00 0.00 0.00 80 1014.1
20260506073503 8 0 0.0 0.0 0.00 0.00 0.00 82 1014.0
20260506073003 8 0 0.0 0.0 0.00 0.00 0.00 83 1013.8
20260506072503 8 0 0.0 0.0 0.00 0.00 0.00 83 1013.8
20260506072003 8 0 0.0 0.0 0.00 0.00 0.00 83 1013.8
20260506071504 8 0 0.0 0.0 0.00 0.00 0.00 84 1013.8
20260506071004 8 0 0.0 0.0 0.00 0.00 0.00 84 1013.7
20260506070504 8 0 0.0 0.0 0.00 0.00 0.00 84 1013.6
20260506062504 8 0 0.0 0.0 0.00 0.00 0.00 84 1013.5
20260506062004 8 0 0.0 0.0 0.00 0.00 0.00 84 1013.5
20260506061504 8 0 0.0 0.0 0.00 0.00 0.00 84 1013.5
20260506061004 8 0 0.0 0.0 0.00 0.00 0.00 84 1013.6
20260506060504 8 0 0.0 0.0 0.00 0.00 0.00 84 1013.5
20260506051003 8 0 0.0 0.0 0.00 0.00 0.00 84 1013.2
20260506050503 8 0 0.0 0.0 0.00 0.00 0.00 84 1013.2
20260506044504 8 0 0.0 0.0 0.00 0.00 0.00 84 1013.2
20260506044003 8 0 0.0 0.0 0.00 0.00 0.00 84 1013.1
20260506043503 8 0 0.0 0.0 0.00 0.00 0.00 84 1013.1
20260506043003 8 0 0.0 0.0 0.00 0.00 0.00 84 1013.1
20260506042713 8 0 0.0 0.0 0.00 0.00 0.00 84 1013.1
20260506042214 8 0 0.0 0.0 0.00 0.00 0.00 84 1013.1
20260506041715 9 0 0.0 0.0 0.00 0.00 0.00 84 1013.0
20260506041004 9 0 0.0 0.0 0.00 0.00 0.00 84 1013.1
20260506040504 9 0 0.0 0.0 0.00 0.00 0.00 84 1013.1
20260506040004 9 0 0.0 0.0 0.00 0.00 0.00 83 1013.0
20260506035504 9 0 0.0 0.0 0.00 0.00 0.00 83 1013.1
20260506035004 9 0 0.0 0.0 0.00 0.00 0.00 83 1013.0
20260506034503 9 0 0.0 0.0 0.00 0.00 0.00 83 1013.1
20260506034213 9 0 0.0 0.0 0.00 0.00 0.00 83 1013.0
20260506033503 9 0 0.0 0.0 0.00 0.00 0.00 83 1013.1
20260506033213 9 0 0.0 0.0 0.00 0.00 0.00 83 1013.2
20260506032504 8 0 0.0 0.0 0.00 0.00 0.00 83 1013.1
20260506032213 9 0 0.0 0.0 0.00 0.00 0.00 83 1013.1
20260506031714 8 0 0.0 0.0 0.00 0.00 0.00 83 1013.1
20260506031004 8 0 0.0 0.0 0.00 0.00 0.00 83 1013.2
20260506030504 8 0 0.0 0.0 0.00 0.00 0.00 83 1013.1
20260506030213 8 0 0.0 0.0 0.00 0.00 0.00 83 1013.2
20260506025503 8 0 0.0 0.0 0.00 0.00 0.00 83 1013.1
20260506025004 8 0 0.0 0.0 0.00 0.00 0.00 83 1013.2
20260506024504 8 0 0.0 0.0 0.00 0.00 0.00 83 1013.2
20260506024004 8 0 0.0 0.0 0.00 0.00 0.00 83 1013.2
20260506023503 8 0 0.0 0.0 0.00 0.00 0.00 83 1013.2
20260506023004 8 0 0.0 0.0 0.00 0.00 0.00 83 1013.2
20260506022714 8 0 0.0 0.0 0.00 0.00 0.00 83 1013.2
20260506022003 9 0 0.0 0.0 0.00 0.00 0.00 83 1013.1
20260506021503 9 0 0.0 0.0 0.00 0.00 0.00 83 1013.2
20260506021003 9 0 0.0 0.0 0.00 0.00 0.00 83 1013.2
20260506020714 9 0 0.0 0.0 0.00 0.00 0.00 82 1013.2
20260506020004 9 0 0.0 0.0 0.00 0.00 0.00 82 1013.2
20260506015504 9 0 0.0 0.0 0.00 0.00 0.00 82 1013.1
20260506015215 9 0 0.0 0.0 0.00 0.00 0.00 82 1013.1
20260506014504 9 0 0.0 0.0 0.00 0.00 0.00 82 1013.1
20260506014003 9 0 0.0 0.0 0.00 0.00 0.00 82 1013.2
20260506013503 9 0 0.0 0.0 0.00 0.00 0.00 82 1013.1
20260506013003 9 0 0.0 0.0 0.00 0.00 0.00 82 1013.2
20260506012503 9 0 0.0 0.0 0.00 0.00 0.00 82 1013.3
20260506012004 9 0 0.0 0.0 0.00 0.00 0.00 82 1013.4
20260506011504 9 0 0.0 0.0 0.00 0.00 0.00 82 1013.2
20260506011214 9 0 0.0 0.0 0.00 0.00 0.00 82 1013.4
20260506010503 9 0 0.0 0.0 0.00 0.00 0.00 81 1013.3
20260506010004 9 0 0.0 0.0 0.00 0.00 0.00 81 1013.3
20260506005713 9 0 0.0 0.0 0.00 0.00 0.00 81 1013.3
20260506005003 9 0 0.0 0.0 0.00 0.00 0.00 81 1013.3
20260506004713 9 0 0.0 0.0 0.00 0.00 0.00 81 1013.4
20260506004004 9 0 0.0 0.0 0.00 0.00 0.00 81 1013.4
20260506003504 9 0 0.0 0.0 0.00 0.00 0.00 81 1013.4
20260506003004 9 0 0.0 0.0 0.00 0.00 0.00 81 1013.4
20260506002504 9 0 0.0 0.0 0.00 0.00 0.00 81 1013.4
20260506002004 9 0 0.0 0.0 0.00 0.00 0.00 81 1013.4
20260506001503 9 0 0.0 0.0 0.00 0.00 0.00 81 1013.6
20260506001003 9 0 0.0 0.0 0.00 0.00 0.00 81 1013.5
20260506000503 9 0 0.0 0.0 0.00 0.00 0.00 81 1013.5
20260506000004 9 0 0.0 0.0 0.00 0.00 0.00 81 1013.4
20260505235504 9 0 0.0 0.0 0.00 0.00 0.00 81 1013.4
20260505235004 9 0 0.0 0.0 0.00 0.00 0.00 81 1013.4
20260505234504 9 0 0.0 0.0 0.00 0.00 0.00 81 1013.4
20260505234214 9 0 0.0 0.0 0.00 0.00 0.00 81 1013.4
20260505233503 9 0 0.0 0.0 0.00 0.00 0.00 81 1013.5
20260505233003 10 0 0.0 0.0 0.00 0.00 0.00 81 1013.6
20260505232503 10 0 0.0 0.0 0.00 0.00 0.00 81 1013.5
20260505232003 10 0 0.0 0.0 0.00 0.00 0.00 81 1013.5
20260505231503 10 0 0.0 0.0 0.00 0.00 0.00 80 1013.5
20260505231004 10 0 0.0 0.0 0.00 0.00 0.00 80 1013.7
20260505230504 10 0 0.0 0.0 0.00 0.00 0.00 80 1013.6
20260505230004 10 0 0.0 0.0 0.00 0.00 0.00 80 1013.7
20260505225504 10 0 0.0 0.0 0.00 0.00 0.00 80 1013.8
20260505225004 10 0 0.0 0.0 0.00 0.00 0.00 80 1013.7
20260505224504 10 0 0.0 0.0 0.00 0.00 0.00 79 1013.7
20260505224213 10 0 0.0 0.0 0.00 0.00 0.00 79 1013.6
20260505223503 10 0 0.0 0.0 0.00 0.00 0.00 79 1013.6
20260505223213 10 0 0.0 0.0 0.00 0.00 0.00 79 1013.7
20260505222504 10 0 0.0 0.0 0.00 0.00 0.00 78 1013.7
20260505222213 10 0 0.0 0.0 0.00 0.00 0.00 78 1013.7
20260505221504 10 0 0.0 0.0 0.00 0.00 0.00 78 1013.7
20260505221004 10 0 0.0 0.0 0.00 0.00 0.00 78 1013.7
20260505220503 10 0 0.0 0.0 0.00 0.00 0.00 78 1013.7
20260505220004 10 0 0.0 0.0 0.00 0.00 0.00 78 1013.7
20260505215714 10 0 0.0 0.0 0.00 0.00 0.00 77 1013.7
20260505215003 10 0 0.0 0.0 0.00 0.00 0.00 77 1013.7
20260505214503 10 0 0.0 0.0 0.00 0.00 0.00 77 1013.7
20260505214213 10 0 0.0 0.0 0.00 0.00 0.00 77 1013.7
20260505213504 10 0 0.0 0.0 0.00 0.00 0.00 76 1013.7
20260505213213 10 0 0.0 0.0 0.00 0.00 0.00 76 1013.7
20260505212504 10 0 0.0 0.0 0.00 0.00 0.00 76 1013.6
20260505212003 10 0 0.0 0.0 0.00 0.00 0.00 76 1013.7
20260505211714 10 0 0.0 0.0 0.00 0.00 0.00 76 1013.7
20260505211003 10 0 0.0 0.0 0.00 0.00 0.00 75 1013.7
20260505210503 10 0 0.0 0.0 0.00 0.00 0.00 75 1013.6
20260505210004 10 0 0.0 0.0 0.00 0.00 0.00 75 1013.6
20260505205504 10 0 0.0 0.0 0.00 0.00 0.00 75 1013.7
20260505205004 11 0 0.0 0.0 0.00 0.00 0.00 75 1013.6
20260505204504 11 0 0.0 0.0 0.00 0.00 0.00 74 1013.7
20260505204004 11 0 0.0 0.0 0.00 0.00 0.00 74 1013.6
20260505203714 11 0 0.0 0.0 0.00 0.00 0.00 74 1013.7
20260505203004 11 0 0.0 0.0 0.00 0.00 0.00 74 1013.6
20260505202503 11 0 0.0 0.0 0.00 0.00 0.00 74 1013.6
20260505202004 11 0 0.0 0.0 0.00 0.00 0.00 73 1013.5
20260505201504 11 0 0.0 0.0 0.00 0.00 0.00 73 1013.5
20260505201004 11 0 0.0 0.0 0.00 0.00 0.00 73 1013.5
20260505200504 11 0 0.0 0.0 0.00 0.00 0.00 73 1013.5
20260505200004 11 0 0.0 0.0 0.00 0.00 0.00 73 1013.4
20260505195504 11 0 0.0 0.0 0.00 0.00 0.00 73 1013.3
20260505195004 11 0 0.0 0.0 0.00 0.00 0.00 73 1013.3
20260505194504 11 0 0.0 0.0 0.00 0.00 0.00 73 1013.2
20260505194003 11 0 0.0 0.0 0.00 0.00 0.00 73 1013.1
20260505193503 11 0 0.0 0.0 0.00 0.00 0.00 73 1013.2
20260505193003 11 0 0.0 0.0 0.00 0.00 0.00 73 1013.1
20260505192504 11 0 0.0 0.0 0.00 0.00 0.00 73 1013.0
20260505192214 11 308 0.0 0.0 0.00 0.00 0.00 72 1013.0
20260505191504 12 308 0.0 0.0 0.00 0.00 0.00 72 1013.1
20260505191214 12 0 0.0 0.0 0.00 0.00 0.00 72 1013.2
20260505190713 12 0 0.0 0.0 0.00 0.00 0.00 72 1013.2
20260505190214 12 0 0.0 0.0 0.00 0.00 0.00 72 1013.1
20260505185503 12 0 0.0 0.0 0.00 0.00 0.00 72 1013.0
20260505185003 12 0 0.0 0.0 0.00 0.00 0.00 72 1013.0
20260505184503 12 0 0.0 0.0 0.00 0.00 0.00 72 1013.0
20260505184004 12 0 0.0 0.0 0.00 0.00 0.00 72 1013.0
20260505183504 12 0 0.0 0.0 0.00 0.00 0.00 72 1012.9
20260505183004 12 0 0.0 0.0 0.00 0.00 0.00 71 1012.9
20260505182504 12 0 0.0 0.0 0.00 0.00 0.00 71 1012.9
20260505182214 12 0 0.0 0.0 0.00 0.00 0.00 71 1012.8
20260505181504 12 0 0.0 0.0 0.00 0.00 0.00 70 1012.9
20260505181003 13 0 0.0 0.0 0.00 0.00 0.00 69 1012.9
20260505180503 13 0 0.0 0.0 0.00 0.00 0.00 68 1012.9
20260505180003 13 0 0.0 0.0 0.00 0.00 0.00 67 1012.8
20260505175504 13 0 0.0 0.0 0.00 0.00 0.00 67 1012.7
20260505175004 13 0 0.0 0.0 0.00 0.00 0.00 67 1012.7
20260505174504 13 0 0.0 0.0 0.00 0.00 0.00 66 1012.7
20260505174004 13 0 0.0 0.0 0.00 0.00 0.00 65 1012.7
20260505173715 13 0 0.0 0.0 0.00 0.00 0.00 65 1012.7
20260505173003 14 0 0.0 0.0 0.00 0.00 0.00 65 1012.7
20260505172504 14 0 0.0 0.0 0.00 0.00 0.00 63 1012.8
20260505172003 14 0 0.0 0.0 0.00 0.00 0.00 63 1012.9
20260505171504 15 0 0.0 0.0 0.00 0.00 0.00 63 1012.8
20260505171004 15 0 0.0 0.0 0.00 0.00 0.00 61 1012.9
20260505170505 15 0 0.0 0.0 0.00 0.00 0.00 61 1013.0
20260505170004 15 0 0.0 0.0 0.00 0.00 0.00 62 1013.0
20260505165504 15 0 0.0 0.0 0.00 0.00 0.00 62 1013.0
20260505165004 15 0 0.0 0.0 0.00 0.00 0.00 60 1012.9
20260505164504 15 0 0.0 0.0 0.00 0.00 0.00 60 1013.0
20260505164003 15 0 0.0 0.0 0.00 0.00 0.00 58 1013.1
20260505163503 15 308 0.0 1.6 0.00 0.00 0.00 58 1013.0
20260505163213 15 308 0.0 1.6 0.00 0.00 0.00 60 1012.9
20260505162503 15 0 0.0 0.0 0.00 0.00 0.00 58 1012.9
20260505162003 15 0 0.0 0.0 0.00 0.00 0.00 59 1012.9
20260505161503 15 0 0.0 0.0 0.00 0.00 0.00 60 1013.0
20260505161213 15 0 0.0 0.0 0.00 0.00 0.00 61 1012.9
20260505160503 15 0 0.0 0.0 0.00 0.00 0.00 62 1013.0
20260505153213 15 0 0.0 0.0 0.00 0.00 0.00 58 1013.1
20260505152504 16 0 0.0 0.0 0.00 0.00 0.00 59 1013.0
20260505152003 16 0 0.0 0.0 0.00 0.00 0.00 57 1013.0
20260505151714 16 0 0.0 0.0 0.00 0.00 0.00 56 1013.0
20260505151004 16 0 0.0 0.0 0.00 0.00 0.00 57 1013.0
20260505150503 16 0 0.0 0.0 0.00 0.00 0.00 56 1013.0